Location: Unspecified
(0.0000°N, 0.0000°E)
Time: 08:47:22
(UTC+00:00)

Cosmos 2058 - Pass Details

Date: 01 May 2019
Orbit: 561 x 585 km, 82.5° (Epoch: 23 May)

Event Time Altitude Azimuth Distance (km) Brightness Sun altitude
Rises 05:14:21 0° 155° (SSE) 2,808 6.6 -10.3°
Reaches altitude 10° 05:17:14 10° 134° (SE) 1,904 6.0 -9.6°
Maximum altitude 05:19:56 17° 94° (E) 1,513 6.2 -9.0°
Drops below altitude 10° 05:22:37 10° 54° (NE) 1,894 6.9 -8.3°
Sets 05:25:27 0° 33° (NNE) 2,786 7.2 -7.7°
